| time (UTC) | temp F | wind direction | speed knots | gust knots | rain 1hr in | rain 24hr in | rain mn in | humidity % | barometer mb |
| 20260509034018 | 56 | 0.0 | 1.7 | 0.02 | 1.39 | 0.46 | 100 | 1003.0 | |
| 20260509033017 | 56 | 0.0 | 1.7 | 0.02 | 1.39 | 0.46 | 100 | 1003.0 | |
| 20260509032017 | 56 | 0.0 | 1.7 | 0.02 | 1.39 | 0.46 | 100 | 1002.8 | |
| 20260509031018 | 55 | 0.0 | 0.9 | 0.02 | 1.39 | 0.46 | 100 | 1002.9 | |
| 20260509030017 | 55 | 0.0 | 0.9 | 0.01 | 1.38 | 0.45 | 100 | 1002.8 | |
| 20260509025017 | 55 | 0.0 | 1.7 | 0.01 | 1.38 | 0.45 | 100 | 1003.2 | |
| 20260509024018 | 55 | 0.0 | 1.7 | 0.01 | 1.37 | 0.44 | 100 | 1003.3 | |
| 20260509023017 | 55 | 203 | 0.9 | 3.5 | 0.02 | 1.37 | 0.44 | 100 | 1003.2 |
| 20260509022017 | 56 | 180 | 0.9 | 3.5 | 0.02 | 1.37 | 0.44 | 100 | 1003.2 |
| 20260509021017 | 56 | 248 | 0.9 | 2.6 | 0.02 | 1.37 | 0.44 | 100 | 1003.3 |
| 20260509020017 | 56 | 203 | 0.9 | 4.3 | 0.04 | 1.37 | 0.44 | 100 | 1003.1 |
| 20260509015017 | 56 | 0.0 | 3.5 | 0.04 | 1.37 | 0.44 | 100 | 1003.1 | |
| 20260509014017 | 55 | 248 | 0.9 | 3.5 | 0.03 | 1.37 | 0.43 | 100 | 1003.3 |
| 20260509013017 | 56 | 0.0 | 3.5 | 0.02 | 1.35 | 0.42 | 100 | 1003.3 | |
| 20260509012037 | 55 | 203 | 0.9 | 4.3 | 0.02 | 1.35 | 0.42 | 100 | 1003.4 |
| 20260509011017 | 55 | 180 | 0.9 | 4.3 | 0.02 | 1.35 | 0.42 | 100 | 1003.3 |
| 20260509010017 | 56 | 203 | 1.7 | 3.5 | 0.00 | 1.34 | 0.40 | 100 | 1003.3 |
| 20260509005017 | 57 | 203 | 0.9 | 4.3 | 0.00 | 1.34 | 0.40 | 100 | 1003.2 |
| 20260509004017 | 57 | 203 | 0.9 | 4.3 | 0.00 | 1.34 | 0.40 | 100 | 1003.4 |
| 20260509003018 | 57 | 180 | 0.9 | 4.3 | 0.00 | 1.34 | 0.40 | 100 | 1003.4 |
| 20260509002037 | 57 | 180 | 0.9 | 4.3 | 0.00 | 1.34 | 0.40 | 100 | 1003.6 |
| 20260509001017 | 56 | 203 | 0.9 | 3.5 | 0.00 | 1.34 | 0.40 | 100 | 1003.8 |
| 20260509000017 | 56 | 158 | 0.9 | 4.3 | 0.01 | 1.34 | 0.40 | 100 | 1004.1 |
| 20260508235017 | 55 | 180 | 0.9 | 7.0 | 0.01 | 1.34 | 0.40 | 100 | 1004.1 |
| 20260508234037 | 55 | 0 | 0.9 | 2.6 | 0.01 | 1.34 | 0.40 | 100 | 1004.1 |
| 20260508233017 | 56 | 180 | 1.7 | 5.2 | 0.01 | 1.34 | 0.40 | 100 | 1004.1 |
| 20260508232017 | 56 | 180 | 1.7 | 7.0 | 0.01 | 1.34 | 0.40 | 100 | 1004.1 |
| 20260508231017 | 57 | 180 | 1.7 | 6.1 | 0.01 | 1.34 | 0.40 | 100 | 1004.1 |
| 20260508230058 | 59 | 203 | 1.7 | 7.8 | 0.00 | 1.33 | 0.39 | 100 | 1003.8 |
| 20260508225017 | 59 | 203 | 1.7 | 5.2 | 0.00 | 1.33 | 0.39 | 100 | 1003.8 |
| 20260508224016 | 58 | 180 | 1.7 | 9.6 | 0.00 | 1.33 | 0.39 | 100 | 1003.5 |
| 20260508223057 | 58 | 203 | 1.7 | 7.0 | 0.00 | 1.33 | 0.39 | 100 | 1003.8 |
| 20260508222018 | 57 | 180 | 1.7 | 8.7 | 0.00 | 1.33 | 0.39 | 100 | 1003.9 |
| 20260508221036 | 57 | 248 | 1.7 | 5.2 | 0.00 | 1.33 | 0.39 | 100 | 1004.0 |
| 20260508215017 | 56 | 293 | 1.7 | 7.0 | 0.00 | 1.33 | 0.39 | 100 | 1004.1 |
| 20260508214017 | 56 | 180 | 1.7 | 4.3 | 0.00 | 1.33 | 0.39 | 100 | 1004.2 |
| 20260508213016 | 56 | 315 | 1.7 | 7.8 | 0.00 | 1.33 | 0.39 | 100 | 1004.1 |
| 20260508212017 | 56 | 270 | 1.7 | 7.8 | 0.00 | 1.33 | 0.39 | 100 | 1004.1 |
| 20260508211016 | 56 | 338 | 1.7 | 7.0 | 0.00 | 1.33 | 0.39 | 100 | 1004.1 |
| 20260508210017 | 56 | 338 | 1.7 | 5.2 | 0.00 | 1.33 | 0.39 | 100 | 1003.9 |
| 20260508205017 | 56 | 338 | 0.9 | 5.2 | 0.00 | 1.33 | 0.39 | 100 | 1003.9 |
| 20260508204036 | 55 | 315 | 0.9 | 5.2 | 0.00 | 1.33 | 0.39 | 100 | 1003.8 |
| 20260508203017 | 55 | 315 | 0.9 | 4.3 | 0.01 | 1.33 | 0.39 | 100 | 1003.8 |
| 20260508202019 | 54 | 338 | 0.9 | 5.2 | 0.01 | 1.33 | 0.39 | 100 | 1003.7 |
| 20260508201020 | 53 | 315 | 0.9 | 4.3 | 0.09 | 1.33 | 0.39 | 100 | 1003.7 |
| 20260508200018 | 53 | 338 | 0.9 | 4.3 | 0.13 | 1.33 | 0.39 | 100 | 1003.7 |
| 20260508195019 | 54 | 338 | 0.9 | 4.3 | 0.13 | 1.33 | 0.39 | 100 | 1003.6 |
| 20260508194018 | 54 | 315 | 0.9 | 3.5 | 0.28 | 1.33 | 0.39 | 100 | 1003.6 |
| 20260508193018 | 55 | 315 | 0.9 | 3.5 | 0.39 | 1.32 | 0.39 | 100 | 1003.6 |
| 20260508192019 | 55 | 158 | 1.7 | 7.0 | 0.39 | 1.32 | 0.39 | 100 | 1003.6 |
| 20260508191019 | 55 | 315 | 1.7 | 5.2 | 0.31 | 1.24 | 0.31 | 100 | 1003.7 |
| 20260508190017 | 55 | 338 | 0.9 | 5.2 | 0.26 | 1.20 | 0.26 | 100 | 1003.4 |
| 20260508185019 | 55 | 180 | 1.7 | 7.8 | 0.26 | 1.20 | 0.26 | 100 | 1003.4 |
| 20260508184018 | 55 | 158 | 1.7 | 7.8 | 0.12 | 1.06 | 0.12 | 100 | 1003.3 |
| 20260508183018 | 56 | 180 | 0.9 | 6.1 | 0.00 | 0.94 | 0.00 | 100 | 1003.6 |
| 20260508182038 | 56 | 338 | 0.9 | 6.1 | 0.00 | 0.94 | 0.00 | 100 | 1003.5 |
| 20260508181018 | 56 | 315 | 1.7 | 8.7 | 0.00 | 0.94 | 0.00 | 100 | 1003.4 |
| 20260508180018 | 56 | 315 | 1.7 | 5.2 | 0.00 | 0.94 | 0.00 | 100 | 1003.5 |
| 20260508175018 | 56 | 315 | 1.7 | 8.7 | 0.00 | 0.94 | 0.00 | 100 | 1003.5 |
| 20260508174018 | 57 | 338 | 1.7 | 7.8 | 0.00 | 0.94 | 0.00 | 100 | 1003.3 |
| 20260508173118 | 57 | 338 | 2.6 | 10.4 | 0.00 | 0.94 | 0.00 | 100 | 1003.5 |
| 20260508172058 | 56 | 338 | 1.7 | 6.1 | 0.00 | 0.94 | 0.00 | 100 | 1003.4 |
| 20260508171018 | 56 | 338 | 1.7 | 7.0 | 0.00 | 0.94 | 0.00 | 100 | 1003.5 |
| 20260508170018 | 56 | 315 | 1.7 | 8.7 | 0.00 | 0.94 | 0.00 | 100 | 1003.6 |
| 20260508165058 | 56 | 338 | 1.7 | 8.7 | 0.00 | 0.94 | 0.00 | 100 | 1003.5 |
| 20260508164038 | 57 | 338 | 1.7 | 6.1 | 0.00 | 0.94 | 0.00 | 100 | 1003.6 |
| 20260508163038 | 56 | 338 | 0.9 | 7.0 | 0.00 | 0.94 | 0.00 | 100 | 1003.6 |
| 20260508162019 | 56 | 315 | 0.9 | 3.5 | 0.00 | 0.94 | 0.00 | 100 | 1003.6 |
| 20260508161019 | 56 | 315 | 0.9 | 3.5 | 0.00 | 0.94 | 0.00 | 100 | 1003.8 |
| 20260508160038 | 56 | 315 | 0.9 | 5.2 | 0.00 | 0.94 | 0.00 | 100 | 1003.8 |
| 20260508155019 | 55 | 338 | 0.9 | 4.3 | 0.00 | 0.94 | 0.00 | 100 | 1003.9 |
| 20260508154038 | 55 | 315 | 0.9 | 4.3 | 0.00 | 0.94 | 0.00 | 100 | 1004.0 |
| 20260508153018 | 55 | 315 | 0.9 | 2.6 | 0.00 | 0.94 | 0.00 | 100 | 1004.1 |
| 20260508152018 | 55 | 315 | 0.9 | 2.6 | 0.00 | 0.94 | 0.00 | 100 | 1004.2 |
| 20260508151018 | 55 | 315 | 0.9 | 4.3 | 0.00 | 0.94 | 0.00 | 100 | 1004.2 |
| 20260508150018 | 56 | 338 | 1.7 | 7.8 | 0.00 | 0.94 | 0.00 | 100 | 1004.3 |
| 20260508145018 | 56 | 338 | 1.7 | 7.0 | 0.00 | 0.94 | 0.00 | 100 | 1004.3 |
| 20260508144038 | 56 | 338 | 1.7 | 7.0 | 0.00 | 0.94 | 0.00 | 100 | 1004.3 |
| 20260508143018 | 56 | 338 | 1.7 | 7.8 | 0.00 | 0.94 | 0.00 | 100 | 1004.3 |
| 20260508142018 | 56 | 338 | 1.7 | 7.0 | 0.00 | 0.94 | 0.00 | 100 | 1004.2 |
| 20260508141017 | 56 | 338 | 1.7 | 7.0 | 0.00 | 0.94 | 0.00 | 100 | 1004.4 |
| 20260508140019 | 56 | 338 | 1.7 | 7.8 | 0.00 | 0.94 | 0.00 | 100 | 1004.4 |
| 20260508135018 | 57 | 338 | 1.7 | 5.2 | 0.00 | 0.94 | 0.00 | 100 | 1004.3 |
| 20260508134017 | 57 | 338 | 1.7 | 7.8 | 0.00 | 0.94 | 0.00 | 100 | 1004.6 |
| 20260508133018 | 57 | 338 | 1.7 | 9.6 | 0.00 | 0.94 | 0.00 | 100 | 1004.7 |
| 20260508132018 | 57 | 315 | 1.7 | 7.8 | 0.00 | 0.94 | 0.00 | 100 | 1004.6 |
| 20260508130018 | 57 | 315 | 1.7 | 6.1 | 0.00 | 0.95 | 0.00 | 100 | 1004.8 |
| 20260508125018 | 56 | 315 | 1.7 | 5.2 | 0.00 | 0.95 | 0.00 | 100 | 1004.9 |
| 20260508124018 | 56 | 338 | 1.7 | 6.1 | 0.00 | 0.95 | 0.00 | 100 | 1004.8 |
| 20260508123018 | 56 | 338 | 2.6 | 8.7 | 0.00 | 0.95 | 0.00 | 100 | 1004.9 |
| 20260508122017 | 57 | 315 | 2.6 | 9.6 | 0.00 | 0.95 | 0.00 | 100 | 1004.9 |
| 20260508121019 | 57 | 338 | 2.6 | 8.7 | 0.00 | 0.95 | 0.00 | 100 | 1005.1 |
| 20260508120058 | 56 | 338 | 1.7 | 6.1 | 0.00 | 0.96 | 0.96 | 100 | 1005.0 |
| 20260508115018 | 56 | 338 | 1.7 | 6.1 | 0.00 | 0.96 | 0.96 | 100 | 1005.0 |
| 20260508114018 | 56 | 315 | 0.9 | 6.1 | 0.00 | 0.96 | 0.96 | 100 | 1005.1 |
| 20260508113018 | 56 | 338 | 1.7 | 6.1 | 0.00 | 0.96 | 0.96 | 100 | 1005.1 |
| 20260508112017 | 56 | 315 | 0.9 | 4.3 | 0.00 | 0.96 | 0.96 | 100 | 1005.0 |
| 20260508111017 | 56 | 315 | 1.7 | 7.0 | 0.00 | 0.96 | 0.96 | 100 | 1005.0 |
| 20260508110038 | 56 | 338 | 0.9 | 4.3 | 0.00 | 0.96 | 0.96 | 100 | 1004.9 |
| 20260508105138 | 56 | 315 | 1.7 | 7.8 | 0.01 | 0.96 | 0.96 | 100 | 1005.0 |
| 20260508104017 | 56 | 315 | 0.9 | 3.5 | 0.08 | 0.96 | 0.96 | 100 | 1004.9 |
| 20260508103018 | 55 | 315 | 0.9 | 5.2 | 0.19 | 0.96 | 0.96 | 100 | 1005.2 |
| 20260508102018 | 55 | 338 | 1.7 | 9.6 | 0.26 | 0.96 | 0.96 | 100 | 1005.5 |
| 20260508101017 | 55 | 315 | 0.9 | 4.3 | 0.29 | 0.96 | 0.96 | 100 | 1005.5 |
| 20260508100017 | 55 | 315 | 1.7 | 7.8 | 0.30 | 0.96 | 0.96 | 100 | 1005.4 |
| 20260508095017 | 56 | 315 | 3.5 | 10.4 | 0.30 | 0.95 | 0.95 | 100 | 1005.7 |
| 20260508094118 | 58 | 338 | 3.5 | 13.0 | 0.23 | 0.88 | 0.88 | 100 | 1005.3 |
| 20260508093038 | 58 | 338 | 3.5 | 8.7 | 0.13 | 0.77 | 0.77 | 100 | 1004.8 |
| 20260508092017 | 59 | 338 | 4.3 | 10.4 | 0.13 | 0.70 | 0.70 | 100 | 1005.3 |
| 20260508091017 | 59 | 338 | 5.2 | 14.8 | 0.18 | 0.67 | 0.67 | 100 | 1005.4 |
| 20260508090018 | 58 | 315 | 5.2 | 15.6 | 0.23 | 0.66 | 0.66 | 100 | 1005.5 |
| 20260508085017 | 58 | 338 | 4.3 | 11.3 | 0.26 | 0.65 | 0.65 | 100 | 1005.3 |
| 20260508084017 | 59 | 338 | 4.3 | 14.8 | 0.33 | 0.65 | 0.65 | 100 | 1005.1 |
| 20260508083018 | 58 | 338 | 4.3 | 13.9 | 0.37 | 0.65 | 0.65 | 100 | 1004.9 |
| 20260508082018 | 58 | 338 | 3.5 | 11.3 | 0.29 | 0.57 | 0.57 | 100 | 1005.1 |
| 20260508081017 | 58 | 338 | 3.5 | 12.2 | 0.23 | 0.49 | 0.49 | 100 | 1005.2 |
| 20260508080018 | 58 | 45 | 2.6 | 9.6 | 0.23 | 0.43 | 0.43 | 100 | 1005.4 |
| 20260508075017 | 58 | 113 | 2.6 | 7.8 | 0.26 | 0.39 | 0.39 | 100 | 1005.4 |
| 20260508074017 | 59 | 90 | 3.5 | 13.0 | 0.24 | 0.32 | 0.32 | 100 | 1006.2 |
| 20260508073018 | 58 | 113 | 2.6 | 7.0 | 0.21 | 0.28 | 0.28 | 100 | 1006.0 |
| 20260508072017 | 58 | 90 | 2.6 | 9.6 | 0.23 | 0.28 | 0.28 | 100 | 1006.1 |
| 20260508071017 | 58 | 45 | 2.6 | 7.8 | 0.21 | 0.26 | 0.26 | 100 | 1006.4 |
| 20260508070017 | 58 | 338 | 2.6 | 8.7 | 0.17 | 0.20 | 0.20 | 100 | 1007.0 |
| 20260508065017 | 58 | 315 | 2.6 | 8.7 | 0.09 | 0.13 | 0.13 | 100 | 1006.7 |
| 20260508064018 | 58 | 315 | 3.5 | 8.7 | 0.05 | 0.09 | 0.09 | 100 | 1006.6 |
| 20260508063017 | 58 | 68 | 3.5 | 8.7 | 0.02 | 0.06 | 0.06 | 100 | 1006.4 |
| 20260508062017 | 58 | 90 | 3.5 | 11.3 | 0.01 | 0.05 | 0.05 | 100 | 1006.7 |
| 20260508061017 | 58 | 113 | 2.6 | 7.8 | 0.01 | 0.05 | 0.05 | 100 | 1006.7 |
| 20260508060057 | 58 | 113 | 3.5 | 8.7 | 0.00 | 0.04 | 0.04 | 100 | 1006.9 |
| 20260508054017 | 58 | 90 | 2.6 | 10.4 | 0.01 | 0.04 | 0.04 | 100 | 1006.9 |
| 20260508053017 | 58 | 113 | 3.5 | 9.6 | 0.01 | 0.04 | 0.04 | 100 | 1007.3 |
| 20260508052017 | 58 | 90 | 3.5 | 7.8 | 0.01 | 0.04 | 0.04 | 100 | 1007.3 |
| 20260508051017 | 58 | 90 | 2.6 | 7.8 | 0.01 | 0.04 | 0.04 | 100 | 1007.2 |
| 20260508050017 | 59 | 90 | 3.5 | 9.6 | 0.01 | 0.04 | 0.04 | 100 | 1007.5 |
| 20260508045058 | 59 | 90 | 2.6 | 8.7 | 0.00 | 0.03 | 0.03 | 100 | 1007.5 |
| 20260508044057 | 59 | 113 | 3.5 | 10.4 | 0.00 | 0.03 | 0.03 | 100 | 1007.7 |
| 20260508043017 | 59 | 90 | 3.5 | 9.6 | 0.00 | 0.03 | 0.03 | 100 | 1007.6 |
| 20260508042017 | 59 | 0 | 2.6 | 7.8 | 0.00 | 0.03 | 0.03 | 100 | 1008.1 |
| 20260508041017 | 59 | 113 | 3.5 | 8.7 | 0.00 | 0.03 | 0.03 | 100 | 1008.1 |
| 20260508040137 | 59 | 113 | 3.5 | 7.8 | 0.00 | 0.03 | 0.03 | 100 | 1008.2 |
| 20260508035037 | 59 | 113 | 2.6 | 8.7 | 0.00 | 0.03 | 0.03 | 100 | 1008.3 |